Weather History for Lake Charles, LA

Change the Weather History Date:

Tuesday, June 11, 2013

  Actual Average Record
Temperature  
Mean Temperature 82 °F -  
Max Temperature 91 °F 87 °F 93 °F (2002)
Min Temperature 73 °F 73 °F 67 °F (2014)
Cooling Degree Days 17    
Growing Degree Days 32 (Base 50)    
Moisture  
Dew Point 74 °F    
Average Humidity 81    
Maximum Humidity 95    
Minimum Humidity 55    
Precipitation  
Precipitation 0.00 in - - ()
Sea Level Pressure  
Sea Level Pressure 30.04 in    
Wind  
Wind Speed 3 mph (South)    
Max Wind Speed 10 mph    
Max Gust Speed -    
Visibility 8 miles    
Events      
Averages and records for this station are not official NWS values.
T = Trace of Precipitation, MM = Missing Value Source: NWS Daily Summary

Daily Weather History Graph

Daily Weather History Graph

Search for Another Location

Airport:

Trip Planner

Search our weather history database for the weather conditions in past years. The results will help you decide how hot, cold, wet, or windy it might be!

Date:

Astronomy

Jun. 11, 2013 Rise Set
Actual Time 6:10 AM CDT 8:14 PM CDT
Civil Twilight 5:42 AM CDT 8:41 PM CDT
Nautical Twilight 5:09 AM CDT 9:15 PM CDT
Astronomical Twilight 4:33 AM CDT 9:50 PM CDT
Moon 8:45 AM CDT (6/11) 10:27 PM CDT (6/11)
Length of Visible Light 14h 58m
Length of Day
14h 04m
Waxing Crescent, 8% of the Moon is Illuminated
Jun 11
Waxing Crescent
Jun 16
First Quarter
Jun 23
Full
Jun 29
Last Quarter
Jul 8
New

Hourly Weather History & Observations

Time (CDT) Temp. Heat Index Dew Point Humidity Pressure Visibility Wind Dir Wind Speed Gust Speed Precip Events Conditions
12:15 AM 76.3 °F - 74.3 °F 94% 30.00 in 5.0 mi Calm Calm - N/A   Clear
12:35 AM 76.3 °F - 74.3 °F 94% 30.00 in 5.0 mi Calm Calm - N/A   Clear
12:55 AM 76.5 °F - 74.5 °F 94% 30.01 in 5.0 mi Calm Calm - N/A   Clear
1:15 AM 75.9 °F - 73.9 °F 94% 30.00 in 4.0 mi Calm Calm - N/A   Clear
1:35 AM 75.7 °F - 73.9 °F 94% 30.00 in 2.5 mi SSE 3.5 mph - N/A   Clear
1:55 AM 75.0 °F - 73.4 °F 95% 30.01 in 4.0 mi SSE 3.5 mph - N/A   Clear
2:15 AM 73.6 °F - 72.0 °F 95% 30.01 in 7.0 mi SSE 4.6 mph - N/A   Clear
2:35 AM 73.6 °F - 72.1 °F 95% 30.02 in 4.0 mi SSE 4.6 mph - N/A   Clear
6:00 AM 75.2 °F - 73.4 °F 94% 30.04 in 5.0 mi Calm Calm - N/A   Clear
6:50 AM 75.2 °F - 73.4 °F 94% 30.05 in 6.0 mi Calm Calm - N/A   Clear
7:50 AM 78.8 °F - 75.2 °F 89% 30.07 in 6.0 mi Calm Calm - N/A   Clear
8:50 AM 82.4 °F 92.4 °F 78.8 °F 89% 30.07 in 10.0 mi SE 3.5 mph - N/A   Scattered Clouds
9:50 AM 84.2 °F 92.3 °F 75.2 °F 74% 30.08 in 10.0 mi South 3.5 mph - N/A   Scattered Clouds
10:50 AM 87.8 °F 95.6 °F 73.4 °F 62% 30.08 in 10.0 mi South 3.5 mph - N/A   Mostly Cloudy
11:50 AM 89.6 °F 98.2 °F 73.4 °F 59% 30.08 in 10.0 mi South 8.1 mph - N/A   Mostly Cloudy
12:50 PM 89.6 °F 98.2 °F 73.4 °F 59% 30.07 in 10.0 mi SSE 9.2 mph - N/A   Scattered Clouds
1:50 PM 91.4 °F 100.1 °F 73.4 °F 55% 30.07 in 10.0 mi SW 8.1 mph - N/A   Mostly Cloudy
2:47 PM 89.6 °F 98.2 °F 73.4 °F 59% 30.05 in 10.0 mi SSW 9.2 mph - N/A   Mostly Cloudy
3:45 PM 87.8 °F 99.7 °F 77.0 °F 70% 30.04 in 10.0 mi South 5.8 mph - N/A   Scattered Clouds
4:50 PM 89.6 °F 99.8 °F 75.2 °F 62% 30.02 in 10.0 mi SSW 10.4 mph - N/A   Scattered Clouds
5:55 PM 89.6 °F 98.2 °F 73.4 °F 59% 30.02 in 10.0 mi SSW 10.4 mph - N/A   Scattered Clouds
6:55 PM 87.8 °F 95.6 °F 73.4 °F 62% 30.01 in 10.0 mi South 9.2 mph - N/A   Scattered Clouds
7:58 PM 84.2 °F 90.9 °F 73.4 °F 70% 30.03 in 10.0 mi South 6.9 mph - N/A   Clear
8:58 PM 80.6 °F 85.4 °F 73.4 °F 79% 30.03 in 10.0 mi South 4.6 mph - N/A   Clear
9:45 PM 77.0 °F - 73.4 °F 89% 30.04 in 10.0 mi SSE 4.6 mph - N/A   Clear
11:15 PM 77.4 °F - 74.5 °F 91% 30.05 in 7.0 mi SSE 3.5 mph - N/A   Clear
11:35 PM 76.5 °F - 74.3 °F 93% 30.05 in 7.0 mi SSE 3.5 mph - N/A   Clear
11:55 PM 77.0 °F - 74.3 °F 91% 30.05 in 7.0 mi Calm Calm - N/A   Clear